Location: El Álamo
(40.2307°N, 3.9945°W)
Time: 04:12:04
(UTC+00:00)

DELTA 2 R/B (1) - Pass Details

Date: 19 May 2025
Orbit: 787 x 800 km, 39.6° (Epoch: 23 June)

Event Time Altitude Azimuth Distance (km) Brightness Sun altitude
Rises 20:23:56 0° 230° (SW) 3,262 6.9 -9.7°
Reaches altitude 10° 20:26:31 10° 223° (SW) 2,336 6.1 -10.1°
Maximum altitude 20:31:39 41° 155° (SSE) 1,129 4.0 -10.9°
Drops below altitude 10° 20:36:49 10° 86° (E) 2,350 5.6 -11.7°
Enters shadow 20:38:22 - 81° (E) 2,903 6.1 -11.9°
